Weather History for Curacao, Curacao

Change the Weather History Date:

Friday, September 6, 2013

  Actual Average Record
Temperature  
Mean Temperature 87 °F -  
Max Temperature 93 °F 89 °F 95 °F (2006)
Min Temperature 81 °F 78 °F 37 °F (1997)
Cooling Degree Days 22    
Growing Degree Days 37 (Base 50)    
Moisture  
Dew Point 73 °F    
Average Humidity 64    
Maximum Humidity 79    
Minimum Humidity 33    
Precipitation  
Precipitation 0.00 in 0.07 in - ()
Sea Level Pressure  
Sea Level Pressure 29.84 in    
Wind  
Wind Speed 10 mph ()    
Max Wind Speed 17 mph    
Max Gust Speed -    
Visibility 6.2 miles    
Events      
Averages and records for this station are not official NWS values.
T = Trace of Precipitation, MM = Missing Value Source: Averaged Metar Reports

Daily Weather History Graph

Daily Weather History Graph

Search for Another Location

Airport:

Trip Planner

Search our weather history database for the weather conditions in past years. The results will help you decide how hot, cold, wet, or windy it might be!

Date:

Astronomy

Sep. 06, 2013 Rise Set
Actual Time 6:25 AM AST 6:42 PM AST
Civil Twilight 6:03 AM AST 7:04 PM AST
Nautical Twilight 5:39 AM AST 7:28 PM AST
Astronomical Twilight 5:14 AM AST 7:53 PM AST
Moon 7:13 AM AST (9/6) 7:31 PM AST (9/6)
Length of Visible Light 13h 00m
Length of Day
12h 17m
New Moon, 1% of the Moon is Illuminated
Sep 6
New Moon
Sep 12
First Quarter
Sep 19
Full
Sep 26
Last Quarter
Oct 4
New

Hourly Weather History & Observations

Time (AST) Temp. Heat Index Dew Point Humidity Pressure Visibility Wind Dir Wind Speed Gust Speed Precip Events Conditions
12:00 AM 84.2 °F 94.1 °F 77.0 °F 79% 29.86 in - SE 11.5 mph - N/A   Clear
1:00 AM 84.2 °F 90.9 °F 73.4 °F 70% 29.86 in - SE 9.2 mph - N/A   Clear
2:00 AM 83 °F - 72 °F 62% 29.85 in 31 mi SSE 5.8 mph - -   Clear
2:00 AM 84.2 °F 89.6 °F 71.6 °F 66% 29.83 in - SE 10.4 mph - N/A   Clear
3:00 AM 82.4 °F 87.2 °F 71.6 °F 70% 29.83 in - SSE 11.5 mph - N/A   Clear
4:00 AM 82.4 °F 87.2 °F 71.6 °F 70% 29.83 in 6.2 mi SE 10.4 mph - N/A   Unknown
5:00 AM 82 °F - 72 °F 66% 29.84 in 31 mi SSE 4.6 mph - -   Clear
5:00 AM 82.4 °F 87.2 °F 71.6 °F 70% 29.83 in - SE 8.1 mph - N/A   Clear
6:00 AM 82.4 °F 87.2 °F 71.6 °F 70% 29.83 in - SE 9.2 mph - N/A   Clear
7:00 AM 82.4 °F 87.2 °F 71.6 °F 70% 29.86 in 6.2 mi SE 9.2 mph - N/A   Partly Cloudy
8:00 AM 86 °F - 72 °F 56% 29.88 in 31 mi SSE 8.1 mph - -   Scattered Clouds
8:00 AM 86.0 °F 93.4 °F 73.4 °F 66% 29.86 in 6.2 mi SE 11.5 mph - N/A   Partly Cloudy
9:00 AM 89.6 °F 96.2 °F 71.6 °F 55% 29.89 in 6.2 mi SE 13.8 mph - N/A   Partly Cloudy
10:00 AM 91.4 °F 96.8 °F 69.8 °F 49% 29.89 in 6.2 mi SE 17.3 mph - N/A   Partly Cloudy
11:00 AM 92 °F - 67 °F 33% 29.90 in 31 mi SE 11.5 mph - -   Scattered Clouds
11:00 AM 93.2 °F 96.2 °F 66.2 °F 41% 29.89 in 6.2 mi SE 17.3 mph - N/A   Partly Cloudy
12:00 PM 93.2 °F 98.8 °F 69.8 °F 46% 29.86 in 6.2 mi SE 17.3 mph - N/A   Partly Cloudy
1:00 PM 93.2 °F 96.2 °F 66.2 °F 41% 29.86 in 6.2 mi SSE 15.0 mph - N/A   Partly Cloudy
2:00 PM 91.4 °F 100.1 °F 73.4 °F 55% 29.80 in 6.2 mi SE 12.7 mph - N/A   Partly Cloudy
3:00 PM 89.6 °F 99.8 °F 75.2 °F 62% 29.77 in 6.2 mi East 13.8 mph - N/A   Partly Cloudy
4:00 PM 89.6 °F 98.2 °F 73.4 °F 59% 29.77 in 6.2 mi East 13.8 mph - N/A   Partly Cloudy
5:00 PM 89.6 °F 98.2 °F 73.4 °F 59% 29.77 in 6.2 mi East 12.7 mph - N/A   Partly Cloudy
6:00 PM 87.8 °F 99.7 °F 77.0 °F 70% 29.77 in 6.2 mi East 13.8 mph - N/A   Partly Cloudy
7:00 PM 86.0 °F 96.9 °F 77.0 °F 74% 29.80 in 6.2 mi East 15.0 mph - N/A   Partly Cloudy
8:00 PM 84.2 °F 94.1 °F 77.0 °F 79% 29.83 in 6.2 mi East 13.8 mph - N/A   Partly Cloudy
9:00 PM 84.2 °F 94.1 °F 77.0 °F 79% 29.86 in 6.2 mi East 12.7 mph - N/A   Partly Cloudy
10:00 PM 84.2 °F 94.1 °F 77.0 °F 79% 29.86 in 6.2 mi East 12.7 mph - N/A   Partly Cloudy
11:00 PM 84 °F - 78 °F 76% 29.88 in 37 mi ESE 9.2 mph - -   Scattered Clouds
11:00 PM 84.2 °F 94.1 °F 77.0 °F 79% 29.89 in 6.2 mi East 12.7 mph - N/A   Partly Cloudy